Weather in Mont St Michel

France     48°37′42″N   1°31′48″W
temp.,
°C
wind,
m/s
gust,
m/s
humid.,
%
clouds,
%
prec.,
mm/h
press.,
hPa
HPBL,
m
19 january, wed
wed1901:00+3e22893 0.0 103235
04:00+3wnw11895 0.0 103165
07:00+3nw249148 0.0 1030155
10:00+7wnw248499 0.0 1030224
13:00+8w558379 0.0 1030490
16:00+7wsw3591100 0.0 1028262
19:00+8wsw369791 0.6 1029211
22:00+7nne51094100 0.1 1030425
20 january, thu
thu2001:00+5n49855 0.1 1032323
04:00+4n598950 0.0 1033261
07:00+3n599121 0.0 1034235
10:00+5nne4883100 0.0 1035320
13:00+7nne686518 0.0 10371285
16:00+6nne68685 0.0 10361147
19:00+2nne47805 0.0 1037236
22:00+1ne348170 0.0 103979
21 january, fri
fri2101:00+3nne3474100 0.0 1039118
04:00+2nne348116 0.0 1038108
07:00+3nne357899 0.0 1038170
10:00+2nne35826 0.0 1039124
13:00+6n34665 0.0 1039768
16:00+6nnw34655 0.0 1038844
19:00+3nne34771 0.0 1039119
22:00+2ne23833 0.0 103948
22 january, sat
sat2201:00+1ne23903 0.0 103949
04:00+2ne22903 0.0 103945
07:00+2ne22915 0.0 103948
10:00+3ne11890 0.0 103951
13:00+7n23770 0.0 1039397
16:00+8nnw23770 0.0 1037399
19:00+4nne33900 0.0 103759
22:00+3ne22922 0.0 103842
23 january, sun
sun2301:00+3ene22911 0.0 103742
04:00+2ne22910 0.0 103647
07:00+2ne23920 0.0 103551
10:00+3ne34933 0.0 103694
13:00+8ne35784 0.0 1035554
16:00+8ene44763 0.0 1034530
19:00+4e578395 0.0 1035417
22:00+3ene23855 0.0 103566